Flag for USA

Past Weather in Portland, Maine, USA — Yesterday and Last 2 Weeks

Now
72 °F

Passing clouds.


Feels Like: 74 °F
Forecast: 67 / 62 °F
Wind: 13 mph from South

Location: Portland - Portland International Jetport
Current Time: Sep 29, 2020 at 2:39:57 pm
Latest Report: Sep 29, 2020 at 1:51 pm
Visibility: 10 mi
Pressure29.88 "Hg
Humidity: 73%
Dew Point: 63 °F
Location of PortlandLocation

Past Weather in Portland — Graph

°F

Portland Temperature Yesterday

Maximum temperature yesterday: 70 °F (at 4:55 pm)
Minimum temperature yesterday: 65 °F (at 3:51 am)
Average temperature yesterday: 67 °F

High & Low Weather Summary for the Past Weeks

 TemperatureHumidityPressure
High83 °F (Sep 24, 1:51 pm)97% (Sep 26, 2:36 am)30.64 "Hg (Sep 26, 2:36 am)
Low36 °F (Sep 21, 5:51 am)24% (Sep 19, 2:51 pm)29.64 "Hg (Sep 23, 2:51 am)
Average61 °F68%30.09 "Hg
* Reported Sep 14 12:51 pm — Sep 29 12:51 pm, Portland. Weather by CustomWeather, © 2020

Note: Actual official high and low records may vary slightly from our data, if they occured in-between our weather recording intervals... More about our weather records

Portland Weather History for the Previous 24 Hours

Scroll right to see more
 ConditionsComfort  
Time TempWeatherWind HumidityBarometerVisibility
12:51 pm
Tue, Sep 29
72 °FPassing clouds.13 mph73%29.92 "Hg10 mi
11:51 am73 °FPartly sunny.9 mph71%29.93 "Hg10 mi
11:19 am70 °FPartly sunny.7 mph79%29.94 "Hg10 mi
10:51 am70 °FMostly cloudy.8 mph81%29.94 "Hg10 mi
9:51 am68 °FLow clouds.6 mph87%29.96 "Hg10 mi
8:51 am67 °FFog.3 mph90%29.96 "Hg6 mi
7:51 am64 °FFog.3 mph97%29.96 "Hg3 mi
7:13 am64 °FFog.6 mph94%29.95 "Hg3 mi
6:51 am63 °FFog.6 mph97%29.94 "Hg3 mi
6:34 am63 °FFog.5 mph97%29.94 "Hg3 mi
6:16 am63 °FFog.6 mph97%29.94 "Hg2 mi
6:04 am63 °FFog.7 mph97%29.94 "Hg1 mi
5:51 am63 °FFog.8 mph97%29.93 "Hg0 mi
5:31 am63 °FFog.7 mph97%29.93 "Hg1 mi
5:23 am64 °FFog.6 mph94%29.94 "Hg2 mi
4:51 am64 °FPassing clouds.3 mph97%29.94 "Hg9 mi
4:32 am64 °FPassing clouds.3 mph97%29.93 "Hg9 mi
3:51 am65 °FLow clouds.5 mph97%29.93 "Hg9 mi
3:33 am65 °FLow clouds.6 mph97%29.94 "Hg8 mi
2:59 am65 °FFog.5 mph97%29.95 "Hg2 mi
2:34 am65 °FFog.5 mph97%29.95 "Hg1 mi
2:07 am65 °FFog.6 mph97%29.94 "Hg1 mi
1:51 am65 °FFog.9 mph97%29.93 "Hg0 mi
1:35 am66 °FFog.8 mph93%29.94 "Hg1 mi
12:51 am66 °FLow clouds.6 mph96%29.93 "Hg7 mi
11:58 pm
Mon, Sep 28
66 °FLow clouds.8 mph96%29.94 "Hg10 mi
10:51 pm65 °FFog.12 mph97%29.95 "Hg1 mi
9:51 pm66 °FFog.9 mph96%29.93 "Hg1 mi
8:51 pm66 °FFog.10 mph96%29.92 "Hg1 mi
7:51 pm66 °FFog.9 mph96%29.93 "Hg1 mi
7:05 pm67 °FFog.8 mph97%29.92 "Hg1 mi
6:51 pm68 °FFog.9 mph93%29.92 "Hg2 mi
5:51 pm68 °FFog.10 mph93%29.92 "Hg2 mi
5:31 pm68 °FFog.9 mph93%29.93 "Hg3 mi
4:55 pm70 °FLow clouds.9 mph87%29.93 "Hg10 mi
3:51 pm68 °FFog.7 mph93%29.93 "Hg2 mi
3:08 pm68 °FFog.10 mph93%29.95 "Hg1 mi
2:51 pm69 °FFog.9 mph90%29.95 "Hg5 mi
Weather by CustomWeather, © 2020

See weather overview